Location: Lansingburgh
(42.7845°N, 73.6696°W)
Time: 01:26:11
(UTC+00:00)

ACS3 Solar Sail - Pass Details

Date: 10 October 2024
Orbit: 961 x 1022 km, 97.5° (Epoch: 03 November)

Event Time Altitude Azimuth Distance (km) Brightness Sun altitude
Exits shadow 01:46:31 34° 249° (WSW) 1,623 3.1 -37.3°
Maximum altitude 01:47:26 36° 266° (W) 1,583 3.1 -37.5°
Drops below altitude 10° 01:53:16 10° 331° (NNW) 2,838 4.8 -38.4°
Sets 01:56:02 0° 340° (NNW) 3,795 5.5 -38.8°
